| time (UTC) | temp F | wind direction | speed MPH | gust MPH | rain 1hr in | rain 24hr in | rain mn in | humidity % | barometer mb |
| 20260504215005 | 52 | 274 | 0.0 | 0.0 | 0.00 | 1.10 | 0.21 | 95 | 1014.1 |
| 20260504214533 | 52 | 274 | 0.0 | 0.0 | 0.04 | 1.10 | 0.21 | 95 | 1014.3 |
| 20260504214020 | 52 | 274 | 0.0 | 0.0 | 0.08 | 1.10 | 0.21 | 95 | 1014.3 |
| 20260504213509 | 52 | 274 | 0.0 | 0.0 | 0.08 | 1.10 | 0.21 | 95 | 1014.3 |
| 20260504213034 | 52 | 274 | 0.0 | 0.0 | 0.12 | 1.10 | 0.21 | 95 | 1014.2 |
| 20260504212522 | 52 | 274 | 0.0 | 0.0 | 0.16 | 1.10 | 0.21 | 95 | 1014.3 |
| 20260504212010 | 52 | 274 | 0.0 | 0.0 | 0.24 | 1.10 | 0.21 | 95 | 1014.2 |
| 20260504211518 | 52 | 274 | 0.0 | 0.0 | 0.28 | 1.10 | 0.21 | 95 | 1014.3 |
| 20260504211006 | 52 | 274 | 0.0 | 0.0 | 0.31 | 1.10 | 0.21 | 95 | 1014.2 |
| 20260504210514 | 52 | 274 | 0.0 | 0.0 | 0.31 | 1.10 | 0.21 | 95 | 1014.3 |
| 20260504210003 | 52 | 274 | 0.0 | 0.0 | 0.35 | 1.18 | 0.21 | 95 | 1014.3 |
| 20260504205510 | 52 | 274 | 0.0 | 0.0 | 0.39 | 1.18 | 0.21 | 94 | 1014.3 |
| 20260504205014 | 52 | 274 | 0.0 | 0.0 | 0.39 | 1.18 | 0.21 | 94 | 1014.3 |
| 20260504204502 | 53 | 274 | 0.0 | 1.0 | 0.35 | 1.14 | 0.20 | 94 | 1014.4 |
| 20260504204031 | 53 | 274 | 0.0 | 1.0 | 0.31 | 1.10 | 0.20 | 94 | 1014.2 |
| 20260504203518 | 53 | 274 | 0.0 | 0.0 | 0.31 | 1.10 | 0.20 | 94 | 1014.2 |
| 20260504203026 | 53 | 274 | 0.0 | 2.0 | 0.28 | 1.06 | 0.19 | 94 | 1014.2 |
| 20260504202534 | 53 | 274 | 1.0 | 2.0 | 0.24 | 0.98 | 0.17 | 94 | 1014.2 |
| 20260504202021 | 53 | 274 | 0.0 | 3.0 | 0.20 | 0.94 | 0.17 | 94 | 1014.3 |
| 20260504201508 | 53 | 275 | 1.0 | 3.0 | 0.12 | 0.87 | 0.15 | 93 | 1014.3 |
| 20260504201015 | 53 | 276 | 1.0 | 4.0 | 0.12 | 0.87 | 0.15 | 93 | 1014.2 |
| 20260504200502 | 53 | 281 | 0.0 | 4.0 | 0.12 | 0.87 | 0.15 | 93 | 1014.1 |
| 20260504200009 | 53 | 282 | 0.0 | 4.0 | 0.08 | 0.91 | 0.14 | 93 | 1014.0 |
| 20260504195534 | 53 | 290 | 0.0 | 2.0 | 0.04 | 0.87 | 0.13 | 93 | 1014.0 |
| 20260504195019 | 53 | 290 | 0.0 | 2.0 | 0.04 | 0.87 | 0.13 | 93 | 1014.0 |
| 20260504194503 | 53 | 290 | 0.0 | 0.0 | 0.04 | 0.87 | 0.13 | 93 | 1014.0 |
| 20260504194006 | 53 | 290 | 0.0 | 0.0 | 0.04 | 0.87 | 0.13 | 93 | 1014.0 |
| 20260504193530 | 53 | 290 | 0.0 | 2.0 | 0.08 | 0.87 | 0.13 | 92 | 1013.9 |
| 20260504193034 | 53 | 290 | 0.0 | 2.0 | 0.08 | 0.87 | 0.13 | 92 | 1013.8 |
| 20260504192518 | 53 | 290 | 0.0 | 3.0 | 0.04 | 0.83 | 0.13 | 92 | 1013.8 |
| 20260504192003 | 54 | 290 | 0.0 | 1.0 | 0.04 | 0.83 | 0.13 | 92 | 1013.7 |
| 20260504191508 | 54 | 290 | 0.0 | 2.0 | 0.04 | 0.83 | 0.13 | 92 | 1013.6 |
| 20260504191010 | 54 | 290 | 0.0 | 2.0 | 0.04 | 0.83 | 0.13 | 91 | 1013.6 |
| 20260504190536 | 54 | 290 | 0.0 | 0.0 | 0.04 | 0.83 | 0.13 | 91 | 1013.6 |
| 20260504190021 | 54 | 290 | 0.0 | 0.0 | 0.08 | 0.98 | 0.13 | 91 | 1013.5 |
| 20260504185529 | 54 | 290 | 0.0 | 0.0 | 0.08 | 0.98 | 0.13 | 91 | 1013.4 |
| 20260504185014 | 54 | 290 | 0.0 | 0.0 | 0.12 | 0.98 | 0.13 | 90 | 1013.5 |
| 20260504184542 | 54 | 290 | 0.0 | 1.0 | 0.16 | 0.98 | 0.13 | 90 | 1013.5 |
| 20260504184010 | 54 | 290 | 0.0 | 3.0 | 0.20 | 0.98 | 0.13 | 90 | 1013.4 |
| 20260504183518 | 55 | 290 | 0.0 | 3.0 | 0.24 | 0.94 | 0.12 | 89 | 1013.4 |
| 20260504183006 | 55 | 290 | 0.0 | 1.0 | 0.31 | 0.94 | 0.12 | 89 | 1013.5 |
| 20260504182514 | 55 | 290 | 0.0 | 1.0 | 0.31 | 0.94 | 0.12 | 89 | 1013.4 |
| 20260504182002 | 56 | 290 | 0.0 | 3.0 | 0.35 | 0.94 | 0.12 | 89 | 1013.5 |
| 20260504181510 | 56 | 290 | 0.0 | 3.0 | 0.39 | 0.94 | 0.12 | 89 | 1013.5 |
| 20260504181019 | 56 | 290 | 0.0 | 2.0 | 0.47 | 0.94 | 0.12 | 88 | 1013.6 |
| 20260504180507 | 56 | 290 | 0.0 | 4.0 | 0.59 | 0.94 | 0.12 | 87 | 1013.6 |
| 20260504180014 | 57 | 290 | 0.0 | 4.0 | 0.55 | 1.38 | 0.11 | 87 | 1013.5 |
| 20260504175537 | 57 | 302 | 0.0 | 4.0 | 0.55 | 1.38 | 0.11 | 86 | 1013.6 |
| 20260504175018 | 57 | 302 | 1.0 | 3.0 | 0.51 | 1.34 | 0.10 | 85 | 1013.6 |
| 20260504174520 | 58 | 302 | 0.0 | 3.0 | 0.47 | 1.30 | 0.09 | 84 | 1013.6 |
| 20260504174023 | 58 | 302 | 0.0 | 3.0 | 0.43 | 1.26 | 0.09 | 82 | 1013.7 |
| 20260504173506 | 58 | 306 | 0.0 | 0.0 | 0.35 | 1.18 | 0.07 | 82 | 1013.6 |
| 20260504173009 | 58 | 306 | 0.0 | 0.0 | 0.28 | 1.10 | 0.06 | 81 | 1013.6 |
| 20260504172512 | 58 | 306 | 0.0 | 0.0 | 0.28 | 1.10 | 0.06 | 80 | 1013.5 |
| 20260504172014 | 58 | 306 | 0.0 | 0.0 | 0.24 | 1.06 | 0.05 | 80 | 1013.5 |
| 20260504171517 | 58 | 306 | 0.0 | 3.0 | 0.16 | 0.98 | 0.03 | 79 | 1013.4 |
| 20260504171021 | 58 | 306 | 0.0 | 5.0 | 0.12 | 0.94 | 0.02 | 78 | 1013.4 |
| 20260504170504 | 59 | 306 | 1.0 | 4.0 | 0.00 | 0.83 | 0.00 | 76 | 1013.3 |
| 20260504151010 | 60 | 340 | 3.0 | 11.0 | 0.00 | 1.89 | 0.00 | 67 | 1012.8 |
| 20260504150529 | 61 | 317 | 3.0 | 11.0 | 0.00 | 1.89 | 0.00 | 67 | 1012.8 |
| 20260504141009 | 61 | 321 | 5.0 | 11.0 | 0.00 | 2.44 | 0.00 | 73 | 1012.8 |
| 20260504140517 | 61 | 360 | 2.0 | 10.0 | 0.00 | 2.44 | 0.00 | 74 | 1012.9 |
| 20260504130517 | 60 | 292 | 5.0 | 11.0 | 0.00 | 2.91 | 0.00 | 75 | 1012.9 |
| 20260504110519 | 60 | 311 | 4.0 | 10.0 | 0.00 | 2.91 | 0.00 | 74 | 1013.4 |
| 20260504100511 | 60 | 299 | 2.0 | 8.0 | 0.00 | 2.91 | 0.00 | 70 | 1013.4 |
| 20260504081507 | 55 | 266 | 1.0 | 6.0 | 0.00 | 2.91 | 0.00 | 99 | 1013.3 |
| 20260504081034 | 55 | 267 | 1.0 | 7.0 | 0.00 | 2.91 | 0.00 | 100 | 1013.3 |
| 20260504080521 | 55 | 271 | 1.0 | 6.0 | 0.00 | 2.91 | 0.00 | 100 | 1013.3 |
| 20260504050517 | 53 | 271 | 1.0 | 3.0 | 0.00 | 2.91 | 0.00 | 100 | 1012.2 |
| 20260504050006 | 53 | 272 | 0.0 | 2.0 | 0.00 | 2.91 | 0.00 | 100 | 1012.2 |
| 20260504045535 | 53 | 271 | 0.0 | 2.0 | 0.00 | 2.91 | 0.00 | 100 | 1012.3 |
| 20260504045020 | 53 | 271 | 0.0 | 1.0 | 0.00 | 2.91 | 0.00 | 100 | 1012.3 |
| 20260504044508 | 53 | 271 | 0.0 | 0.0 | 0.00 | 2.91 | 0.00 | 100 | 1012.3 |
| 20260504044014 | 53 | 271 | 0.0 | 0.0 | 0.00 | 2.91 | 0.00 | 100 | 1012.3 |
| 20260504043522 | 53 | 271 | 0.0 | 0.0 | 0.00 | 2.91 | 0.00 | 100 | 1012.3 |
| 20260504043010 | 53 | 271 | 0.0 | 0.0 | 0.00 | 2.91 | 0.00 | 100 | 1012.3 |
| 20260504042518 | 53 | 271 | 0.0 | 0.0 | 0.00 | 2.91 | 0.00 | 100 | 1012.3 |
| 20260504042006 | 53 | 271 | 0.0 | 0.0 | 0.00 | 2.91 | 0.00 | 100 | 1012.3 |
| 20260504041514 | 53 | 271 | 0.0 | 0.0 | 0.00 | 2.91 | 0.00 | 100 | 1012.3 |
| 20260504041020 | 53 | 271 | 0.0 | 0.0 | 0.00 | 2.91 | 0.00 | 100 | 1012.4 |
| 20260504040528 | 53 | 271 | 0.0 | 0.0 | 0.00 | 2.91 | 0.00 | 100 | 1012.4 |
| 20260504040013 | 53 | 271 | 0.0 | 0.0 | 0.00 | 2.91 | 0.00 | 100 | 1012.4 |
| 20260504035521 | 53 | 271 | 0.0 | 0.0 | 0.00 | 2.91 | 0.00 | 100 | 1012.5 |
| 20260504035010 | 53 | 271 | 0.0 | 0.0 | 0.00 | 2.91 | 0.00 | 100 | 1012.4 |
| 20260504034519 | 53 | 271 | 0.0 | 0.0 | 0.00 | 2.91 | 0.00 | 100 | 1012.4 |
| 20260504034003 | 53 | 271 | 0.0 | 0.0 | 0.00 | 2.91 | 0.00 | 100 | 1012.5 |
| 20260504033512 | 53 | 271 | 0.0 | 2.0 | 0.00 | 2.91 | 0.00 | 100 | 1012.4 |
| 20260504033020 | 53 | 271 | 0.0 | 2.0 | 0.00 | 2.91 | 0.00 | 100 | 1012.4 |
| 20260504032509 | 53 | 271 | 0.0 | 2.0 | 0.00 | 2.91 | 0.00 | 100 | 1012.4 |
| 20260504032015 | 53 | 271 | 0.0 | 4.0 | 0.00 | 2.91 | 0.00 | 100 | 1012.5 |
| 20260504031504 | 53 | 271 | 1.0 | 4.0 | 0.00 | 2.91 | 0.00 | 100 | 1012.4 |
| 20260504031012 | 53 | 271 | 0.0 | 0.0 | 0.00 | 2.91 | 0.00 | 100 | 1012.4 |
| 20260504030519 | 53 | 271 | 0.0 | 0.0 | 0.00 | 2.91 | 0.00 | 100 | 1012.5 |
| 20260504030007 | 53 | 271 | 0.0 | 0.0 | 0.00 | 2.95 | 0.00 | 100 | 1012.5 |
| 20260504025516 | 53 | 271 | 0.0 | 1.0 | 0.00 | 2.95 | 0.00 | 100 | 1012.4 |
| 20260504025024 | 53 | 271 | 0.0 | 1.0 | 0.00 | 2.95 | 0.00 | 100 | 1012.4 |
| 20260504024511 | 53 | 271 | 0.0 | 0.0 | 0.00 | 2.95 | 0.00 | 100 | 1012.5 |
| 20260504024004 | 53 | 272 | 0.0 | 0.0 | 0.00 | 2.95 | 0.00 | 100 | 1012.4 |
| 20260504023512 | 53 | 271 | 0.0 | 0.0 | 0.00 | 2.95 | 0.00 | 100 | 1012.4 |
| 20260504023035 | 53 | 271 | 0.0 | 0.0 | 0.00 | 2.95 | 0.00 | 100 | 1012.4 |
| 20260504022506 | 53 | 271 | 0.0 | 0.0 | 0.00 | 2.95 | 0.00 | 100 | 1012.4 |
| 20260504022030 | 53 | 271 | 0.0 | 0.0 | 0.00 | 2.95 | 0.00 | 100 | 1012.4 |
| 20260504021517 | 53 | 271 | 0.0 | 0.0 | 0.00 | 2.95 | 0.00 | 100 | 1012.4 |
| 20260504021018 | 53 | 272 | 0.0 | 0.0 | 0.00 | 2.95 | 0.00 | 100 | 1012.3 |
| 20260504020507 | 53 | 271 | 0.0 | 0.0 | 0.00 | 2.95 | 0.00 | 100 | 1012.3 |
| 20260504020014 | 53 | 271 | 0.0 | 0.0 | 0.00 | 2.95 | 0.00 | 100 | 1012.3 |
| 20260504015503 | 53 | 271 | 0.0 | 0.0 | 0.00 | 2.95 | 0.00 | 100 | 1012.4 |
| 20260504015011 | 53 | 271 | 0.0 | 0.0 | 0.00 | 2.95 | 0.00 | 100 | 1012.4 |
| 20260504014504 | 53 | 271 | 0.0 | 0.0 | 0.00 | 2.95 | 0.00 | 100 | 1012.4 |
| 20260504014012 | 53 | 271 | 0.0 | 0.0 | 0.00 | 2.95 | 0.00 | 100 | 1012.4 |
| 20260504013520 | 53 | 271 | 0.0 | 0.0 | 0.00 | 2.95 | 0.00 | 100 | 1012.5 |
| 20260504013008 | 54 | 271 | 0.0 | 0.0 | 0.00 | 2.95 | 0.00 | 100 | 1012.5 |
| 20260504012516 | 54 | 271 | 0.0 | 0.0 | 0.00 | 2.95 | 0.00 | 100 | 1012.5 |
| 20260504012003 | 54 | 271 | 0.0 | 0.0 | 0.00 | 2.95 | 0.00 | 100 | 1012.5 |
| 20260504011511 | 54 | 271 | 0.0 | 0.0 | 0.00 | 2.95 | 0.00 | 100 | 1012.5 |
| 20260504011018 | 54 | 271 | 0.0 | 0.0 | 0.00 | 2.95 | 0.00 | 100 | 1012.5 |
| 20260504010507 | 54 | 271 | 0.0 | 0.0 | 0.00 | 2.95 | 0.00 | 100 | 1012.5 |
| 20260504010013 | 54 | 271 | 0.0 | 0.0 | 0.00 | 2.95 | 0.00 | 100 | 1012.6 |
| 20260504005542 | 54 | 271 | 0.0 | 0.0 | 0.00 | 2.95 | 0.00 | 100 | 1012.6 |
| 20260504005009 | 54 | 271 | 0.0 | 0.0 | 0.00 | 2.95 | 0.00 | 100 | 1012.5 |
| 20260504004517 | 54 | 271 | 0.0 | 0.0 | 0.00 | 2.95 | 0.00 | 100 | 1012.6 |
| 20260504004006 | 54 | 271 | 0.0 | 0.0 | 0.00 | 2.95 | 0.00 | 100 | 1012.6 |
| 20260504003513 | 54 | 271 | 0.0 | 0.0 | 0.00 | 2.95 | 0.00 | 100 | 1012.6 |
| 20260504003019 | 54 | 271 | 0.0 | 0.0 | 0.00 | 2.95 | 0.00 | 100 | 1012.6 |
| 20260504002506 | 54 | 271 | 0.0 | 0.0 | 0.00 | 2.95 | 0.00 | 100 | 1012.5 |
| 20260504002015 | 54 | 271 | 0.0 | 0.0 | 0.00 | 2.95 | 0.00 | 100 | 1012.5 |
| 20260504001503 | 54 | 271 | 0.0 | 0.0 | 0.00 | 2.95 | 0.00 | 100 | 1012.7 |
| 20260504001011 | 54 | 271 | 0.0 | 0.0 | 0.00 | 2.95 | 0.00 | 100 | 1012.7 |
| 20260504000519 | 54 | 271 | 0.0 | 0.0 | 0.00 | 2.95 | 0.00 | 100 | 1012.7 |
| 20260504000008 | 54 | 271 | 0.0 | 0.0 | 0.00 | 2.95 | 0.59 | 100 | 1012.8 |
| 20260503235516 | 54 | 271 | 0.0 | 0.0 | 0.00 | 2.95 | 0.59 | 100 | 1012.7 |
| 20260503235004 | 54 | 271 | 0.0 | 0.0 | 0.00 | 2.95 | 0.59 | 100 | 1012.8 |
| 20260503234512 | 54 | 271 | 0.0 | 0.0 | 0.00 | 2.95 | 0.59 | 100 | 1012.8 |
| 20260503234021 | 54 | 271 | 0.0 | 0.0 | 0.00 | 2.95 | 0.59 | 100 | 1012.8 |
| 20260503233509 | 54 | 271 | 0.0 | 0.0 | 0.00 | 2.95 | 0.59 | 100 | 1012.9 |
| 20260503233015 | 54 | 271 | 0.0 | 0.0 | 0.04 | 2.95 | 0.59 | 100 | 1012.8 |
| 20260503232502 | 54 | 271 | 0.0 | 0.0 | 0.04 | 2.95 | 0.59 | 100 | 1012.9 |
| 20260503232011 | 54 | 271 | 0.0 | 0.0 | 0.04 | 2.95 | 0.59 | 100 | 1012.8 |
| 20260503231519 | 55 | 271 | 0.0 | 0.0 | 0.04 | 2.95 | 0.59 | 100 | 1012.8 |
| 20260503231004 | 55 | 272 | 0.0 | 0.0 | 0.04 | 2.95 | 0.59 | 100 | 1012.8 |
| 20260503230512 | 55 | 271 | 0.0 | 0.0 | 0.04 | 2.95 | 0.59 | 100 | 1012.9 |
| 20260503230040 | 55 | 271 | 0.0 | 0.0 | 0.04 | 2.95 | 0.59 | 100 | 1012.8 |
| 20260503225527 | 55 | 271 | 0.0 | 0.0 | 0.04 | 2.95 | 0.59 | 100 | 1012.8 |
| 20260503225014 | 55 | 271 | 0.0 | 0.0 | 0.04 | 2.95 | 0.59 | 100 | 1012.8 |
| 20260503224522 | 55 | 271 | 0.0 | 0.0 | 0.04 | 2.95 | 0.59 | 100 | 1012.9 |
| 20260503224010 | 55 | 271 | 0.0 | 0.0 | 0.04 | 2.95 | 0.59 | 100 | 1012.9 |
| 20260503223518 | 55 | 271 | 0.0 | 0.0 | 0.04 | 2.95 | 0.59 | 100 | 1012.9 |
| 20260503223007 | 55 | 271 | 0.0 | 0.0 | 0.00 | 2.91 | 0.58 | 100 | 1012.9 |
| 20260503222516 | 55 | 271 | 0.0 | 0.0 | 0.00 | 2.91 | 0.58 | 100 | 1012.9 |
| 20260503222003 | 55 | 271 | 0.0 | 0.0 | 0.00 | 2.91 | 0.58 | 100 | 1013.0 |
| 20260503221512 | 55 | 271 | 0.0 | 0.0 | 0.00 | 2.91 | 0.58 | 100 | 1013.1 |
| 20260503221019 | 55 | 271 | 0.0 | 0.0 | 0.00 | 2.91 | 0.58 | 100 | 1013.1 |
| 20260503220507 | 55 | 271 | 0.0 | 0.0 | 0.00 | 2.91 | 0.58 | 100 | 1013.1 |
| 20260503220015 | 55 | 271 | 0.0 | 0.0 | 0.00 | 2.99 | 0.58 | 100 | 1013.0 |
| 20260503215503 | 55 | 271 | 0.0 | 0.0 | 0.00 | 2.99 | 0.58 | 100 | 1013.0 |